Terug naar catalogus

FENGYUN 1C DEB

ActiefSSO
NORAD 31087·DEBRIS·🇨🇳 China

Gelanceerd May 10, 1999 vanaf Taiyuan Satellite Launch Center

Loading…

Volgende Passages (komende 24 uur)

TLE

VersSource: Space-Track

Epoch: Sep 14, 2026, 06:46 UTC

1 31087U 99025BGH 26257.28263053  .00001978  00000-0  32845-3 0  9995
2 31087  98.0860 276.9118 0168970 146.1108 273.9246 14.62239377 27958

Volg FENGYUN 1C DEB in realtime met AllMySat

Download on the App Store